Regional Weather Roundup
Issued by NWS Albany, NY

Home | Current Version | Previous Version | Text Only | Print | Product List | Glossary On
Versions: 1 2 3 4 5 6 7 8 9 10 11 12 13 14 15 16 17 18 19 20 21 22 23 24 25 26 27 28 29 30 31 32 33 34 35 36 37 38 39 40 41 42 43 44 45 46 47 48 49 50
000
ASUS41 KALY 170810
RWRALY

NEW YORK STATE HOURLY WEATHER ROUNDUP
NATIONAL WEATHER SERVICE ALBANY NY
400 AM EDT WED SEP 17 2014

NOTE: "FAIR" INDICATES FEW OR NO CLOUDS BELOW 12,000 FEET WITH NO
SIGNIFICANT WEATHER AND/OR NO OBSTRUCTIONS TO VISIBILITY.

NYZ032-033-038>043-046>054-057>066-NYZ062>081-170900-
EAST


CITY           SKY/WX    TMP DP  RH WIND       PRES   REMARKS
ALBANY         CLEAR     49  44  83 S5        30.04S
GLENS FALLS    PTCLDY    41  40  96 CALM      30.02S FOG
POUGHKEEPSIE   PTCLDY    47  46  97 CALM      30.03F
NEWBURGH       CLEAR     48  48 100 CALM      30.05S
MONTGOMERY     MOCLDY    43  42  97 CALM      30.04S FOG
WHITE PLAINS   CLEAR     51  49  92 NW6       30.02S
ISLIP          CLEAR     53  51  93 CALM      30.00S
NEW YORK CITY  CLEAR     61  51  70 CALM      30.02S
CENTRAL PARK   CLEAR     57  49  74 CALM      30.05S
$$

NYZ005>009-017-018-044>046-055-056-170900-
CENTRAL


CITY           SKY/WX    TMP DP  RH WIND       PRES   REMARKS
FULTON         MOCLDY    48  44  86 CALM      30.03F
SYRACUSE       MOCLDY    51  45  79 CALM      30.03F
ROME           MOCLDY    45  44  97 CALM      30.05F
ELMIRA         CLOUDY    46  46 100 SW3       30.07R FOG
BINGHAMTON     PTCLDY    45  44  97 W6        30.06R FOG
MONTICELLO     MOCLDY    39  39 100 CALM      30.06S
$$

NYZ026>034-041>043-170900-
NORTH


CITY           SKY/WX    TMP DP  RH WIND       PRES   REMARKS
WATERTOWN      CLEAR     42  37  82 CALM      30.02S
FORT DRUM      NOT AVBL
MASSENA        CLEAR     45  44  97 SW5       29.99S
SARANAC LAKE   CLEAR     40  39  97 CALM      29.98F FOG
PLATTSBURGH    CLEAR     48  45  89 SW3       29.98R
$$

NYZ001>004-010>016-019>021-170900-
WEST


CITY           SKY/WX    TMP DP  RH WIND       PRES   REMARKS
NIAGARA FALLS  CLOUDY    48  45  89 CALM      30.04S
BUFFALO        PTCLDY    50  45  83 E3        30.04F
DUNKIRK        CLOUDY    52  48  86 S5        30.05F
JAMESTOWN      MOCLDY    45  43  93 S6        30.07S
WELLSVILLE     MOCLDY    44  41  89 CALM      30.08F
ROCHESTER      PTCLDY    46  44  93 SW5       30.05S
PENN YAN       CLOUDY    51  48  89 SW9       30.06S
$$

             KEY
       WCI = WIND CHILL INDEX
       VSB = VISIBILITY
       HX  = HEAT INDEX
$$


USA.gov is the U.S. government's official web portal to all federal, state and local government web resources and services.